CW3782 Weather Reports


time (UTC)temp
F
wind
direction
speed
knots
gust
knots
rain 1hr
in
rain 24hr
in
rain mn
in
humidity
%
barometer
mb
20260510225705 81 122 0.0 1.7 0.01 0.05 0.04 42 1012.1
20260510225306 80 210 0.0 2.6 0.00 0.00 0.00 46 1013.7
20260510224800 80 315 0.0 0.9 0.00 0.00 0.00 46 1013.8
20260510224705 82 89 0.0 0.9 0.01 0.05 0.04 41 1012.0
20260510224256 80 269 0.0 1.7 0.00 0.00 0.00 45 1013.8
20260510224205 82 34 0.0 0.9 0.01 0.05 0.04 39 1011.9
20260510223754 81 275 0.0 0.9 0.00 0.00 0.00 38 1013.8
20260510223705 82 344 0.0 0.9 0.01 0.05 0.04 40 1011.9
20260510223251 81 260 0.0 1.7 0.00 0.00 0.00 44 1013.8
20260510223206 83 358 0.0 1.7 0.00 0.04 0.03 36 1011.9
20260510222749 81 283 0.0 0.0 0.00 0.00 0.00 44 1013.6
20260510222245 81 333 0.0 2.6 0.00 0.00 0.00 43 1013.8
20260510221740 81 285 1.7 2.6 0.00 0.00 0.00 38 1013.9
20260510221706 84 304 0.9 1.7 0.00 0.04 0.03 36 1012.0
20260510221237 81 246 0.0 2.6 0.00 0.00 0.00 39 1013.6
20260510220734 81 154 0.0 1.7 0.00 0.00 0.00 37 1013.6
20260510220229 81 269 0.0 2.6 0.00 0.00 0.00 38 1013.5
20260510220205 85 355 0.0 1.7 0.00 0.04 0.03 35 1011.9
20260510215727 82 329 1.7 1.7 0.00 0.00 0.00 42 1013.9
20260510215706 85 350 0.0 2.6 0.00 0.04 0.03 35 1011.9
20260510215224 82 315 0.0 0.0 0.00 0.00 0.00 42 1013.3
20260510214721 82 279 0.9 2.6 0.00 0.00 0.00 38 1013.6
20260510214218 82 269 0.9 1.7 0.00 0.00 0.00 40 1013.5
20260510213715 82 301 0.0 1.7 0.00 0.00 0.00 39 1013.5
20260510213211 82 264 0.0 2.6 0.00 0.00 0.00 40 1013.7
20260510213205 87 20 0.9 1.7 0.00 0.04 0.03 33 1011.9
20260510212707 82 46 0.0 1.7 0.00 0.00 0.00 38 1013.3
20260510212205 82 217 0.0 1.7 0.00 0.00 0.00 38 1013.5
20260510211705 87 156 0.9 1.7 0.00 0.04 0.03 38 1011.9
20260510211702 82 271 0.9 2.6 0.00 0.00 0.00 43 1013.5
20260510211156 84 309 0.0 0.9 0.00 0.00 0.00 40 1013.6
20260510210706 87 65 0.9 2.6 0.00 0.04 0.03 35 1011.9
20260510210654 83 171 0.0 2.6 0.00 0.00 0.00 38 1013.6
20260510210204 87 159 0.9 1.7 0.00 0.04 0.03 33 1011.9
20260510210149 83 109 0.0 2.6 0.00 0.00 0.00 38 1013.5
20260510205705 87 12 0.9 2.6 0.00 0.04 0.03 32 1011.9
20260510205648 83 180 1.7 2.6 0.00 0.00 0.00 37 1013.5
20260510205205 88 1 0.9 1.7 0.00 0.04 0.03 36 1011.9
20260510205144 84 167 0.9 2.6 0.00 0.00 0.00 38 1013.6
20260510204640 84 160 1.7 2.6 0.00 0.00 0.00 37 1013.3
20260510204137 84 181 0.9 2.6 0.00 0.00 0.00 38 1013.7
20260510203705 88 35 0.9 1.7 0.00 0.05 0.03 36 1011.9
20260510203634 84 75 0.0 0.9 0.00 0.00 0.00 40 1013.5
20260510203205 88 53 0.9 1.7 0.00 0.05 0.03 34 1012.0
20260510203131 85 291 0.9 2.6 0.00 0.00 0.00 37 1013.7
20260510202631 86 322 0.0 1.7 0.00 0.00 0.00 36 1013.5
20260510202126 86 155 0.0 3.5 0.00 0.00 0.00 34 1013.9
20260510201624 87 253 1.7 4.3 0.00 0.00 0.00 34 1013.6
20260510201206 87 93 0.9 2.6 0.00 0.05 0.03 39 1012.1
20260510201120 86 251 1.7 1.7 0.00 0.00 0.00 38 1013.7
20260510200617 86 338 0.9 1.7 0.00 0.00 0.00 36 1013.3
20260510200205 87 73 0.9 2.6 0.00 0.05 0.03 33 1012.2
20260510200115 87 275 2.6 5.2 0.00 0.00 0.00 35 1013.8
20260510195705 87 53 0.9 2.6 0.00 0.05 0.03 35 1012.2
20260510195612 88 159 1.7 2.6 0.00 0.00 0.00 33 1013.9
20260510195205 88 50 0.9 2.6 0.00 0.05 0.03 33 1012.2
20260510195108 87 332 0.9 1.7 0.00 0.00 0.00 39 1013.6
20260510194602 86 283 0.0 2.6 0.00 0.00 0.00 38 1013.7
20260510194059 85 291 0.9 1.7 0.00 0.00 0.00 46 1013.8
20260510193705 88 49 0.9 2.6 0.00 0.05 0.03 34 1012.3
20260510193553 87 275 0.9 3.5 0.00 0.00 0.00 34 1013.7
20260510193049 86 265 1.7 2.6 0.00 0.00 0.00 37 1014.0
20260510192705 88 79 0.9 2.6 0.00 0.05 0.03 36 1012.5
20260510192549 85 287 0.9 1.7 0.00 0.00 0.00 41 1013.9
20260510192045 84 304 1.7 1.7 0.00 0.00 0.00 41 1014.0
20260510191542 83 336 0.0 0.9 0.00 0.00 0.00 41 1014.0
20260510191038 83 297 0.0 1.7 0.00 0.00 0.00 39 1014.2
20260510190705 88 119 0.0 1.7 0.00 0.05 0.03 37 1012.6
20260510190536 83 274 1.7 2.6 0.00 0.00 0.00 38 1014.2
20260510190205 88 357 0.9 4.3 0.00 0.05 0.03 34 1012.6
20260510190034 84 285 1.7 2.6 0.00 0.00 0.00 40 1014.1
20260510185705 88 59 0.9 2.6 0.01 0.05 0.03 36 1012.7
20260510185530 83 312 0.9 1.7 0.00 0.00 0.00 44 1014.1
20260510185028 82 332 0.9 2.6 0.00 0.00 0.00 44 1014.3
20260510184705 88 102 0.0 2.6 0.01 0.05 0.03 36 1012.7
20260510184525 84 291 1.7 2.6 0.00 0.00 0.00 40 1014.4
20260510184204 88 79 0.9 1.7 0.01 0.05 0.03 36 1012.9
20260510184020 84 273 1.7 3.5 0.00 0.00 0.00 40 1014.5
20260510183706 88 79 0.9 2.6 0.01 0.05 0.03 39 1012.9
20260510183515 85 205 0.0 1.7 0.00 0.00 0.00 40 1014.5
20260510183011 83 167 0.0 2.6 0.00 0.00 0.00 41 1014.4
20260510182705 88 146 0.9 2.6 0.01 0.05 0.03 38 1013.0
20260510182503 84 111 0.0 3.5 0.00 0.00 0.00 42 1014.6
20260510182206 88 57 0.9 1.7 0.01 0.05 0.03 39 1013.0
20260510181957 82 172 1.7 3.5 0.00 0.00 0.00 43 1014.6
20260510181455 82 190 0.0 2.6 0.00 0.00 0.00 45 1014.6
20260510181205 87 87 0.9 2.6 0.01 0.05 0.03 40 1013.0
20260510180951 82 269 0.0 2.6 0.00 0.00 0.00 44 1014.5
20260510180705 86 251 0.9 1.7 0.01 0.05 0.03 45 1013.0
20260510180449 82 254 2.6 3.5 0.00 0.00 0.00 45 1014.6
20260510180205 86 325 0.0 1.7 0.01 0.05 0.03 42 1013.1
20260510175945 82 322 0.0 2.6 0.00 0.00 0.00 46 1014.7
20260510175441 79 320 0.0 1.7 0.00 0.00 0.00 49 1014.6
20260510175205 85 89 0.0 0.9 0.00 0.04 0.02 42 1013.1
20260510174937 81 310 2.6 2.6 0.00 0.00 0.00 47 1014.7
20260510174435 83 315 0.9 4.3 0.00 0.00 0.00 43 1014.7
20260510174205 85 174 0.9 2.6 0.00 0.04 0.02 40 1013.0
20260510173932 82 284 0.9 3.5 0.00 0.00 0.00 45 1014.7
20260510173705 85 202 0.9 2.6 0.00 0.04 0.02 41 1013.1
20260510173428 80 328 0.0 1.7 0.00 0.00 0.00 51 1014.7
20260510172924 80 30 0.0 1.7 0.00 0.00 0.00 49 1014.6
20260510172706 85 166 0.0 0.9 0.00 0.04 0.02 44 1013.1
20260510172420 80 51 0.9 1.7 0.00 0.00 0.00 48 1014.8
20260510171916 80 62 0.9 1.7 0.00 0.00 0.00 48 1014.8
20260510171414 81 88 1.7 1.7 0.00 0.00 0.00 48 1014.8
20260510170910 80 97 1.7 2.6 0.00 0.00 0.00 48 1014.7
20260510170407 80 157 2.6 3.5 0.00 0.00 0.00 45 1015.0
20260510165902 81 79 1.7 1.7 0.00 0.00 0.00 47 1014.8
20260510165705 83 4 0.9 1.7 0.01 0.04 0.02 45 1013.3
20260510165358 81 158 0.9 2.6 0.00 0.00 0.00 45 1014.8
20260510165204 83 343 2.6 4.3 0.01 0.04 0.02 44 1013.3
20260510164856 80 271 1.7 2.6 0.00 0.00 0.00 48 1014.9
20260510164353 79 284 0.9 1.7 0.00 0.00 0.00 50 1015.0
20260510163852 79 302 1.7 2.6 0.00 0.00 0.00 47 1014.9
20260510163349 79 260 1.7 2.6 0.00 0.00 0.00 48 1015.0
20260510163205 82 106 0.9 1.7 0.01 0.05 0.02 49 1013.5
20260510162844 78 290 1.7 1.7 0.00 0.00 0.00 55 1015.0
20260510162341 78 83 1.7 2.6 0.00 0.00 0.00 51 1015.2
20260510162205 82 325 1.7 4.3 0.01 0.05 0.02 47 1013.6
20260510161836 78 257 0.0 1.7 0.00 0.00 0.00 53 1015.1
20260510161333 78 348 0.9 1.7 0.00 0.00 0.00 55 1015.1
20260510160830 78 294 0.9 2.6 0.00 0.00 0.00 53 1015.1
20260510160327 78 309 0.0 2.6 0.00 0.00 0.00 54 1015.0
20260510160205 81 55 0.9 2.6 0.00 0.04 0.01 49 1013.6
20260510155821 77 347 0.0 2.6 0.00 0.00 0.00 61 1015.2
20260510155318 77 169 0.0 1.7 0.00 0.00 0.00 55 1015.3
20260510155205 80 77 0.9 1.7 0.00 0.04 0.01 48 1013.6
20260510154814 77 22 0.0 2.6 0.00 0.00 0.00 59 1015.3
20260510154705 80 147 1.7 2.6 0.00 0.04 0.01 51 1013.7
20260510154310 77 159 1.7 2.6 0.00 0.00 0.00 54 1015.4
20260510154205 79 111 0.9 1.7 0.00 0.04 0.01 55 1013.8
20260510153804 76 326 0.9 2.6 0.00 0.00 0.00 58 1015.4
20260510153705 79 117 0.9 1.7 0.00 0.04 0.01 56 1014.0
20260510153300 77 292 1.7 2.6 0.00 0.00 0.00 55 1015.5
20260510152757 77 287 1.7 1.7 0.00 0.00 0.00 60 1015.6
20260510152254 75 324 0.0 2.6 0.00 0.00 0.00 59 1015.4
20260510152204 78 72 0.9 0.9 0.00 0.04 0.01 59 1013.8
20260510151750 75 320 0.0 1.7 0.00 0.00 0.00 60 1015.5
20260510151249 74 19 0.0 1.7 0.00 0.00 0.00 64 1015.4
20260510151206 77 331 0.9 1.7 0.00 0.04 0.01 60 1013.7
20260510150744 74 339 0.0 2.6 0.00 0.00 0.00 67 1015.3
20260510150704 77 56 0.9 2.6 0.00 0.04 0.01 63 1013.7
20260510150240 74 62 0.0 1.7 0.00 0.00 0.00 68 1015.1
20260510150205 76 165 0.9 1.7 0.00 0.04 0.01 64 1013.7
20260510145736 73 359 0.0 1.7 0.00 0.00 0.00 69 1015.3
20260510145233 73 284 0.0 1.7 0.00 0.00 0.00 71 1015.2
20260510144723 72 331 0.0 0.9 0.00 0.00 0.00 72 1015.2
20260510144704 76 45 0.9 1.7 0.00 0.04 0.01 66 1013.6
20260510144220 72 294 0.0 1.7 0.00 0.00 0.00 74 1015.5
20260510143715 72 269 0.0 1.7 0.00 0.00 0.00 75 1015.1
20260510143705 75 55 0.0 1.7 0.00 0.04 0.01 65 1013.6
20260510143212 72 310 0.9 1.7 0.00 0.00 0.00 75 1015.3
20260510143205 75 73 0.9 1.7 0.00 0.04 0.01 66 1013.6
20260510142708 71 261 1.7 2.6 0.00 0.00 0.00 76 1015.4
20260510142705 74 94 0.9 1.7 0.01 0.04 0.01 70 1013.6
20260510142205 71 306 0.0 0.9 0.00 0.00 0.00 79 1015.3
20260510141702 70 55 1.7 1.7 0.00 0.00 0.00 80 1015.2
20260510141204 72 61 0.9 1.7 0.01 0.04 0.01 73 1013.6
20260510141200 70 36 0.0 2.6 0.00 0.00 0.00 81 1015.2
20260510140705 72 75 0.0 0.9 0.01 0.04 0.01 75 1013.7
20260510140656 69 358 0.0 0.9 0.00 0.00 0.00 81 1015.2
20260510140205 72 82 0.9 0.9 0.01 0.04 0.01 76 1013.6
20260510140156 69 327 0.9 1.7 0.00 0.00 0.00 82 1015.3
20260510135651 69 310 0.0 1.7 0.00 0.00 0.00 82 1015.2
20260510135147 68 310 0.9 1.7 0.00 0.00 0.00 81 1015.4
20260510134704 70 35 0.9 1.7 0.01 0.04 0.01 80 1013.7
20260510134644 68 289 1.7 2.6 0.00 0.00 0.00 84 1015.4
20260510134142 68 161 0.0 0.9 0.00 0.00 0.00 88 1015.2
20260510133705 69 278 0.0 1.7 0.01 0.04 0.01 84 1013.6
20260510133638 68 333 0.0 1.7 0.00 0.00 0.00 89 1015.1
20260510133133 67 28 0.0 2.6 0.00 0.00 0.00 89 1015.1
20260510132630 67 351 0.0 0.9 0.00 0.00 0.00 90 1015.1
20260510132127 66 283 0.0 1.7 0.00 0.00 0.00 91 1015.1
20260510131705 67 304 0.0 0.9 0.00 0.03 0.00 91 1013.5
20260510131625 66 10 0.0 1.7 0.00 0.00 0.00 92 1015.1
20260510131205 67 326 0.9 1.7 0.00 0.03 0.00 92 1013.4
20260510131122 66 252 0.0 1.7 0.00 0.00 0.00 93 1015.1
20260510130705 66 95 0.0 1.7 0.00 0.03 0.00 93 1013.4
20260510130618 65 269 0.0 0.9 0.00 0.00 0.00 95 1015.2
20260510130205 66 302 0.0 0.9 0.00 0.03 0.00 94 1013.3
20260510130116 64 320 0.0 1.7 0.00 0.00 0.00 95 1014.9
20260510125705 65 317 0.0 0.0 0.00 0.03 0.00 94 1013.1
20260510125612 64 48 0.0 1.7 0.00 0.00 0.00 96 1014.7
20260510125108 64 309 0.0 1.7 0.00 0.00 0.00 97 1014.8
20260510124605 64 326 0.9 2.6 0.00 0.00 0.00 98 1014.7
20260510124102 64 309 0.0 1.7 0.00 0.00 0.00 99 1014.9
20260510123556 63 347 0.9 1.7 0.00 0.00 0.00 99 1014.7
20260510123204 64 252 0.0 1.7 0.00 0.03 0.00 94 1013.1
20260510123053 63 2 0.0 0.9 0.00 0.00 0.00 99 1014.5
20260510122704 64 302 0.0 0.9 0.00 0.03 0.00 94 1013.1
20260510122549 63 352 0.9 1.7 0.00 0.00 0.00 99 1014.7
20260510122046 63 293 0.0 1.7 0.00 0.00 0.00 99 1014.6
20260510121705 63 325 0.0 0.9 0.00 0.03 0.00 94 1013.0
20260510121543 63 29 0.0 0.9 0.00 0.00 0.00 99 1014.5
20260510121204 63 322 0.0 0.9 0.00 0.03 0.00 94 1012.9
20260510121040 63 336 0.0 0.9 0.00 0.00 0.00 99 1014.4
20260510120538 63 50 0.0 0.9 0.00 0.00 0.00 99 1014.5
20260510120205 62 335 0.0 0.9 0.00 0.03 0.00 94 1012.8
20260510120033 63 315 0.0 0.0 0.00 0.00 0.00 99 1014.5
20260510115530 62 315 0.0 0.9 0.00 0.00 0.00 99 1014.4
20260510115204 62 309 0.0 1.7 0.00 0.03 0.00 94 1012.8
20260510115027 62 5 0.0 0.9 0.00 0.00 0.00 99 1014.4
20260510114704 62 313 0.0 0.9 0.00 0.03 0.00 94 1012.7
20260510114522 62 44 0.0 1.7 0.00 0.00 0.00 99 1014.3
20260510114019 62 54 0.9 1.7 0.00 0.00 0.00 99 1014.3
20260510113514 61 142 0.0 0.9 0.00 0.00 0.00 99 1013.9
20260510113205 61 325 0.0 0.0 0.00 0.03 0.00 93 1012.5
20260510113012 61 137 0.0 0.9 0.00 0.00 0.00 99 1014.0
20260510112509 61 301 0.0 0.9 0.00 0.00 0.00 99 1013.9
20260510112005 61 129 0.0 0.0 0.00 0.00 0.00 99 1013.9
20260510111502 61 75 0.0 0.0 0.00 0.00 0.00 99 1013.8
20260510110957 61 124 0.0 0.9 0.00 0.00 0.00 99 1013.7
20260510110454 60 107 0.0 0.9 0.00 0.00 0.00 99 1013.7
20260510105950 60 130 0.0 0.9 0.00 0.00 0.00 99 1013.8
20260510105704 61 325 0.0 0.0 0.00 0.03 0.00 93 1012.0
20260510105445 60 117 0.0 0.0 0.00 0.00 0.00 99 1013.6
20260510105204 61 325 0.0 0.0 0.00 0.03 0.00 92 1011.9
20260510104940 60 117 0.0 0.9 0.00 0.00 0.00 99 1013.5
20260510104704 61 325 0.0 0.0 0.00 0.03 0.00 92 1011.7
20260510104437 60 155 0.0 0.9 0.00 0.00 0.00 99 1013.2
20260510103933 60 66 0.0 0.9 0.00 0.00 0.00 99 1013.1
20260510103432 60 77 0.0 0.9 0.00 0.00 0.00 99 1013.2
20260510102926 60 62 0.0 0.9 0.00 0.00 0.00 99 1013.0
20260510102422 60 321 0.0 0.0 0.00 0.00 0.00 99 1013.0
20260510102205 61 325 0.0 0.0 0.00 0.03 0.00 92 1011.5
20260510101920 60 321 0.0 0.0 0.00 0.00 0.00 99 1013.0
20260510101418 60 66 0.0 0.9 0.00 0.00 0.00 99 1012.7
20260510101205 61 325 0.0 0.0 0.00 0.03 0.00 92 1011.3
20260510100915 60 117 0.0 0.9 0.00 0.00 0.00 99 1012.8
20260510100705 61 325 0.0 0.0 0.00 0.03 0.00 92 1011.2
20260510100412 60 32 0.0 0.0 0.00 0.00 0.00 99 1012.7
20260510100204 61 325 0.0 0.0 0.00 0.03 0.00 92 1011.1
20260510095908 61 32 0.0 0.9 0.00 0.00 0.00 99 1012.6
20260510095704 61 325 0.0 0.0 0.00 0.03 0.00 92 1011.1
20260510095403 61 103 0.0 0.9 0.00 0.00 0.00 99 1012.9
20260510095204 61 325 0.0 0.0 0.00 0.03 0.00 92 1011.1
20260510094902 61 166 0.0 1.7 0.00 0.00 0.00 99 1012.8
20260510094357 60 135 0.0 0.9 0.00 0.00 0.00 99 1012.5
20260510093854 60 89 0.0 0.9 0.00 0.00 0.00 99 1012.7
20260510093350 60 113 0.0 1.7 0.00 0.00 0.00 99 1012.3
20260510092846 60 117 0.0 1.7 0.00 0.00 0.00 99 1012.3
20260510092704 61 325 0.0 0.0 0.00 0.03 0.00 92 1011.0
20260510092343 60 91 0.0 0.9 0.00 0.00 0.00 99 1012.3
20260510091838 60 104 0.0 0.9 0.00 0.00 0.00 99 1012.4
20260510091336 60 124 0.0 0.9 0.00 0.00 0.00 99 1012.1
20260510091204 61 325 0.0 0.0 0.00 0.03 0.00 92 1010.5
20260510090832 60 113 0.0 1.7 0.00 0.00 0.00 99 1012.2
20260510090329 60 130 0.0 1.7 0.00 0.00 0.00 99 1012.0
20260510090204 61 325 0.0 0.0 0.00 0.04 0.00 92 1010.5
20260510085824 60 62 0.0 0.0 0.00 0.00 0.00 99 1011.9
20260510085319 60 55 0.0 0.9 0.00 0.00 0.00 99 1011.9
20260510084815 60 25 0.0 0.0 0.00 0.00 0.00 99 1012.0
20260510084312 60 25 0.0 0.9 0.00 0.00 0.00 99 1011.8
20260510083809 60 62 0.0 0.0 0.00 0.00 0.00 99 1011.8
20260510083306 60 73 0.0 0.9 0.00 0.00 0.00 99 1011.7
20260510083204 61 325 0.0 0.0 0.00 0.04 0.00 91 1010.3
20260510082801 60 37 0.0 0.9 0.00 0.00 0.00 99 1011.9
20260510082704 61 325 0.0 0.0 0.00 0.04 0.00 91 1010.5
20260510082258 60 117 0.0 0.9 0.00 0.00 0.00 99 1011.9
20260510081756 60 142 0.0 1.7 0.00 0.00 0.00 99 1011.8
20260510081253 60 123 0.0 0.9 0.00 0.00 0.00 99 1011.8
20260510080749 60 62 0.0 0.0 0.00 0.00 0.00 99 1011.6
20260510080244 60 129 0.0 0.0 0.00 0.00 0.00 99 1011.6
20260510075741 60 66 0.0 0.0 0.00 0.00 0.00 99 1011.8
20260510075239 60 142 0.0 0.9 0.00 0.00 0.00 99 1011.7
20260510075204 61 325 0.0 0.0 0.00 0.04 0.00 90 1010.2
20260510074736 60 142 0.0 0.9 0.00 0.00 0.00 99 1011.7
20260510074232 60 126 0.0 0.9 0.00 0.00 0.00 99 1011.5
20260510073728 60 143 0.0 0.9 0.00 0.00 0.00 99 1011.8
20260510073705 61 325 0.0 0.0 0.00 0.04 0.00 90 1010.1
20260510073224 60 89 0.0 1.7 0.00 0.00 0.00 99 1011.6
20260510073205 61 325 0.0 0.0 0.00 0.04 0.00 90 1010.1
20260510072720 60 133 0.0 0.9 0.00 0.00 0.00 99 1011.7
20260510072705 61 325 0.0 0.0 0.00 0.04 0.00 90 1010.1
20260510072217 60 62 0.0 0.9 0.00 0.00 0.00 99 1011.7
20260510071714 60 104 0.0 0.9 0.00 0.00 0.00 99 1011.6
20260510071705 61 325 0.0 0.0 0.00 0.04 0.00 90 1010.0
20260510071210 60 71 0.0 0.9 0.00 0.00 0.00 99 1011.4
20260510071204 61 325 0.0 0.0 0.00 0.04 0.00 90 1010.0
20260510070708 60 37 0.0 0.9 0.00 0.00 0.00 99 1011.3
20260510070205 60 62 0.0 0.9 0.00 0.00 0.00 99 1011.6
20260510065705 61 325 0.0 0.0 0.00 0.04 0.00 89 1010.0
20260510065700 60 150 0.0 0.9 0.00 0.00 0.00 99 1011.5
20260510065204 61 325 0.0 0.0 0.00 0.04 0.00 89 1010.1
20260510065157 60 119 0.9 1.7 0.00 0.00 0.00 99 1012.0
20260510064653 60 138 0.0 1.7 0.00 0.00 0.00 99 1011.6
20260510064204 61 325 0.0 0.0 0.00 0.04 0.00 89 1010.1
20260510064151 60 154 0.0 0.9 0.00 0.00 0.00 99 1011.6
20260510063648 61 124 0.0 0.9 0.00 0.00 0.00 99 1011.5
20260510063204 61 325 0.0 0.0 0.00 0.04 0.00 89 1010.0
20260510063144 61 66 0.0 0.9 0.00 0.00 0.00 99 1011.8
20260510062704 61 325 0.0 0.0 0.00 0.04 0.00 89 1010.0
20260510062640 61 75 0.0 0.0 0.00 0.00 0.00 99 1011.7
20260510062136 61 336 0.0 0.0 0.00 0.00 0.00 99 1011.4
20260510061631 61 336 0.0 0.9 0.00 0.00 0.00 99 1011.6
20260510061204 61 325 0.0 0.0 0.00 0.04 0.00 88 1010.0
20260510061130 61 75 0.0 0.9 0.00 0.00 0.00 99 1011.4
20260510060625 61 129 0.0 0.0 0.00 0.00 0.00 99 1011.6
20260510060122 61 129 0.0 0.0 0.00 0.00 0.00 99 1011.6
20260510055704 62 325 0.0 0.0 0.00 0.04 0.00 89 1010.2
20260510055618 61 89 0.0 0.9 0.00 0.00 0.00 99 1011.8
20260510055117 61 89 0.0 0.0 0.00 0.00 0.00 99 1011.7
20260510054704 62 325 0.0 0.0 0.00 0.04 0.00 89 1010.5
20260510054612 61 142 0.0 0.9 0.00 0.00 0.00 99 1011.8
20260510054107 61 124 0.0 1.7 0.00 0.00 0.00 99 1011.8
20260510053704 62 325 0.0 0.0 0.00 0.04 0.00 89 1010.5
20260510053607 61 104 0.0 0.9 0.00 0.00 0.00 99 1011.9
20260510053104 61 113 0.0 0.9 0.00 0.00 0.00 99 1011.9
20260510052704 62 325 0.0 0.0 0.00 0.04 0.00 88 1010.5
20260510052559 61 137 0.0 0.9 0.00 0.00 0.00 99 1012.1
20260510052204 62 325 0.0 0.0 0.00 0.04 0.00 88 1010.5
20260510052056 61 160 0.0 1.7 0.00 0.00 0.00 99 1012.1
20260510051704 62 325 0.0 0.0 0.00 0.04 0.00 88 1010.5
20260510051551 61 104 0.0 1.7 0.00 0.00 0.00 99 1012.1
20260510051048 61 74 0.0 0.9 0.00 0.00 0.00 99 1012.1
20260510050704 62 325 0.0 0.0 0.00 0.04 0.00 88 1010.6
20260510050540 61 157 0.0 1.7 0.00 0.00 0.00 99 1012.0
20260510050205 62 325 0.0 0.0 0.00 0.04 0.00 88 1010.6
20260510050037 62 140 0.0 1.7 0.00 0.00 0.00 99 1012.1
20260510045534 62 144 0.0 1.7 0.00 0.00 0.00 99 1012.1
20260510045203 62 325 0.0 0.0 0.00 0.04 0.04 88 1010.6
20260510045030 62 33 0.0 1.7 0.00 0.00 0.00 99 1012.1
20260510044527 62 142 0.0 1.7 0.00 0.00 0.00 99 1012.3
20260510044204 62 325 0.0 0.0 0.01 0.04 0.04 88 1010.8
20260510044025 62 136 0.9 1.7 0.00 0.00 0.00 99 1012.4
20260510043520 62 138 0.9 1.7 0.00 0.00 0.00 99 1012.2
20260510043204 62 325 0.0 0.0 0.01 0.04 0.04 87 1010.7
20260510043015 62 140 0.0 2.6 0.00 0.00 0.00 99 1012.3
20260510042704 62 325 0.0 0.0 0.01 0.04 0.04 87 1010.8
20260510042509 62 155 1.7 1.7 0.00 0.00 0.00 99 1012.1
20260510042204 62 325 0.0 0.0 0.01 0.04 0.04 87 1010.6
20260510042005 62 116 0.0 1.7 0.00 0.00 0.00 99 1012.0
20260510041502 62 32 0.0 1.7 0.00 0.00 0.00 99 1012.1
20260510041204 63 325 0.0 0.0 0.01 0.04 0.04 87 1010.6
20260510041000 62 154 0.0 0.9 0.00 0.00 0.00 99 1012.2
20260510040456 62 32 0.0 0.0 0.00 0.00 0.00 99 1012.0
20260510035952 62 135 0.0 0.9 0.00 0.00 0.00 99 1012.1
20260510035705 63 325 0.0 0.0 0.01 0.04 0.04 87 1010.6
20260510035449 62 135 0.0 0.9 0.00 0.00 0.00 99 1012.1
20260510034948 62 154 0.0 0.9 0.00 0.00 0.00 99 1011.8
20260510034447 62 129 0.9 1.7 0.00 0.00 0.00 98 1012.0
20260510034205 63 325 0.0 0.0 0.00 0.03 0.03 86 1010.6
20260510033943 62 127 0.0 1.7 0.00 0.00 0.00 98 1012.0
20260510033706 63 325 0.0 0.0 0.00 0.03 0.03 86 1010.5
20260510033439 62 135 0.0 1.7 0.00 0.00 0.00 98 1012.0
20260510032937 62 49 0.0 1.7 0.00 0.00 0.00 98 1012.0
20260510032433 62 255 0.0 0.0 0.00 0.00 0.00 98 1012.0
20260510032206 64 325 0.0 0.0 0.00 0.03 0.03 85 1010.5
20260510031928 62 142 0.0 0.9 0.00 0.00 0.00 98 1012.0
20260510031705 64 325 0.0 0.0 0.00 0.03 0.03 85 1010.5
20260510031424 62 124 0.0 0.9 0.00 0.00 0.00 98 1011.9
20260510030919 62 37 0.0 0.0 0.00 0.00 0.00 98 1012.0
20260510030706 64 325 0.0 0.0 0.00 0.03 0.03 85 1010.4
20260510030415 62 117 0.0 0.9 0.00 0.00 0.00 98 1011.8
20260510025913 62 130 0.0 1.7 0.00 0.00 0.00 98 1012.0
20260510025705 64 325 0.0 0.0 0.00 0.03 0.03 84 1010.4
20260510025411 62 140 0.9 1.7 0.00 0.00 0.00 97 1011.7
20260510025206 64 325 0.0 0.0 0.00 0.03 0.03 84 1010.4
20260510024908 62 103 0.0 0.0 0.00 0.00 0.00 97 1012.0
20260510024706 64 325 0.0 0.0 0.00 0.03 0.03 84 1010.4
20260510024404 62 124 0.0 1.7 0.00 0.00 0.00 97 1011.9
20260510023900 62 135 0.0 0.9 0.00 0.00 0.00 97 1011.8
20260510023356 62 119 0.0 0.9 0.00 0.00 0.00 97 1011.6
20260510022854 63 76 0.0 1.7 0.00 0.00 0.00 97 1011.6
20260510022705 65 325 0.0 0.0 0.00 0.03 0.03 83 1010.2
20260510022353 63 129 0.0 0.9 0.00 0.00 0.00 96 1011.7
20260510021852 63 89 0.0 0.0 0.00 0.00 0.00 96 1011.6
20260510021350 63 89 0.0 0.9 0.00 0.00 0.00 96 1011.6
20260510021206 65 325 0.0 0.0 0.00 0.03 0.03 83 1010.1
20260510020846 63 135 0.0 0.0 0.00 0.00 0.00 96 1011.5
20260510020346 63 104 0.0 0.0 0.00 0.00 0.00 96 1011.5
20260510020206 66 325 0.0 0.0 0.00 0.03 0.03 82 1010.0
20260510015842 63 117 0.0 0.9 0.00 0.00 0.00 96 1011.6
20260510015705 66 325 0.0 0.0 0.00 0.03 0.03 82 1010.0
20260510015338 64 44 0.0 0.0 0.00 0.00 0.00 96 1011.6
20260510014833 64 343 0.0 0.0 0.00 0.00 0.00 95 1011.6
20260510014705 66 325 0.0 0.0 0.00 0.03 0.03 81 1010.0
20260510014331 64 343 0.0 0.0 0.00 0.00 0.00 95 1011.5
20260510014206 66 325 0.0 0.0 0.00 0.03 0.03 81 1010.0
20260510013827 64 343 0.0 0.9 0.00 0.00 0.00 95 1011.3
20260510013705 67 325 0.0 0.0 0.00 0.03 0.03 81 1009.8
20260510013323 64 315 0.0 0.0 0.00 0.00 0.00 95 1011.1
20260510012818 64 315 0.0 0.0 0.00 0.00 0.00 95 1011.1
20260510012317 64 315 0.0 0.0 0.00 0.00 0.00 95 1011.0
20260510012205 67 325 0.0 0.0 0.00 0.03 0.03 81 1009.5
20260510011813 64 50 0.0 0.0 0.00 0.00 0.00 94 1010.9
20260510011308 65 119 0.0 0.0 0.00 0.00 0.00 94 1010.6
20260510011205 68 325 0.0 0.0 0.00 0.03 0.03 80 1009.5
20260510010805 65 130 0.0 0.9 0.00 0.00 0.00 94 1010.4
20260510010303 65 120 0.0 0.9 0.00 0.00 0.00 94 1010.8
20260510005759 65 123 0.0 1.7 0.00 0.00 0.00 94 1010.7
20260510005255 65 133 0.0 0.9 0.00 0.00 0.00 93 1010.7
20260510004753 66 147 0.0 0.9 0.00 0.00 0.00 93 1010.5
20260510004251 66 116 0.0 1.7 0.00 0.00 0.00 93 1010.5
20260510003748 66 147 0.0 0.9 0.00 0.00 0.00 92 1010.6
20260510003706 69 325 0.0 0.0 0.00 0.03 0.03 79 1009.2
20260510003244 66 130 0.0 0.9 0.00 0.00 0.00 92 1010.3
20260510003205 70 325 0.0 0.0 0.00 0.03 0.03 78 1009.1
20260510002743 67 148 0.9 1.7 0.00 0.00 0.00 91 1010.5
20260510002241 67 142 0.0 0.9 0.00 0.00 0.00 90 1010.6
20260510002206 70 325 0.0 0.0 0.00 0.03 0.03 77 1009.1
20260510001737 68 150 0.0 0.9 0.00 0.00 0.00 89 1010.6
20260510001705 70 325 0.0 0.0 0.00 0.03 0.03 77 1009.3
20260510001236 68 154 0.0 0.0 0.00 0.00 0.00 89 1010.5
20260510001205 71 325 0.0 0.0 0.00 0.03 0.03 77 1009.2
20260510000731 68 154 0.0 0.0 0.00 0.00 0.00 88 1010.7
20260510000705 71 325 0.0 0.0 0.00 0.03 0.03 77 1009.2
20260510000229 68 150 0.0 0.9 0.00 0.00 0.00 88 1010.5
20260510000205 71 325 0.0 0.0 0.00 0.03 0.03 76 1009.2
20260509235725 69 62 0.0 0.0 0.00 0.00 0.00 87 1010.5
20260509235222 69 50 0.0 0.9 0.00 0.00 0.00 86 1010.4
20260509234718 69 157 0.0 0.0 0.00 0.00 0.00 86 1010.7
20260509234215 69 129 0.0 0.0 0.00 0.00 0.00 85 1010.3
20260509234205 72 325 0.0 0.0 0.00 0.03 0.03 76 1008.9
20260509233714 70 154 0.0 0.0 0.00 0.00 0.00 85 1010.3
20260509233210 70 284 0.0 0.0 0.00 0.00 0.00 85 1010.2
20260509232707 70 284 0.0 0.9 0.00 0.00 0.00 84 1010.1
20260509232204 71 297 0.0 0.0 0.00 0.00 0.00 82 1009.8
20260509231705 72 325 0.0 0.0 0.00 0.03 0.03 75 1008.4
20260509231700 71 297 0.0 0.0 0.00 0.00 0.00 82 1009.8
20260509231205 73 325 0.0 0.9 0.00 0.03 0.03 75 1008.6
20260509231158 71 297 0.0 0.0 0.00 0.00 0.00 82 1010.0
20260509230705 73 325 0.0 0.0 0.00 0.03 0.03 75 1008.4
20260509230655 71 269 0.0 0.0 0.00 0.00 0.00 81 1009.9
20260509230151 71 279 1.7 1.7 0.00 0.00 0.00 81 1009.9